MESAT-1

operational
NORAD ID: 60209 Int'l Des: 2024-125 Owner: UME Country: US
LEOCIRCULARRETROGRADESSO

Über MESAT-1

Beschreibung wird geladen...

Live-Position

3D-Globus wird geladen...

Nächste Überflüge

Höhenverlauf

Altitude vs Time

uPlot chart will show altitude changes over time

Zweizeiliger Elementsatz

1 60209U 24125G 26063.09553115 .00057973 00000-0 92357-3 0 9997
2 60209 97.2459 278.8833 0011269 244.7143 115.2943 15.53001592 93208
Epoch: 4. März 2026 • Age: 14 hours

Aktueller Status

Höhe 407.5 km
Geschwindigkeit 7.67 km/s
Subsatellitenpunkt -1.53°S, 88.38°E
Startdatum 4. Juli 2024
Alter 1.6 years
Typ other

Technische Details

Klassifizierung Payload
Masse 3.00 kg
Trockenmasse 3.00 kg
Gesamtmasse 3.00 kg
Länge 0.30 m
Durchmesser 0.10 m
Spannweite 0.30 m
Form Box
Hersteller UME
Bus-Typ Cubesat 3U
Phasenstatus In Orbit
Besitzer/Staat UME/US

Große Konstellationen

Loading constellations...